Regional Weather Roundup
Issued by NWS Charleston, SC

Current Version | Previous Version | Graphics & Text | Print | Product List | Glossary On
Versions: 1 2 3 4 5 6 7 8 9 10 11 12 13 14 15 16 17 18 19 20 21 22 23 24 25 26 27 28 29 30 31 32 33 34 35 36 37 38 39 40 41 42 43 44 45 46 47 48 49 50
000
ASUS42 KCHS 200512
RWRCHS

REGIONAL WEATHER ROUNDUP
NATIONAL WEATHER SERVICE CHARLESTON SC
1200 AM EST FRI JAN 20 2017

NOTE: "FAIR" INDICATES FEW OR NO CLOUDS BELOW 12,000 FEET WITH NO
SIGNIFICANT WEATHER AND/OR OBSTRUCTIONS TO VISIBILITY.

NOT ALL STATIONS ARE QUALITY CONTROLLED. USE DATA WITH CAUTION...
ESPECIALLY DEWPOINT OBSERVATIONS.

SCZ027-030-031-034>040-042>050-200600-
...SOUTHEAST SOUTH CAROLINA...

CITY           SKY/WX    TMP DP  RH WIND       PRES   REMARKS
N CHARLESTON   CLOUDY    57  52  83 CALM      29.97F
WATERFRONT PRK   N/A     58  56  92 CALM      29.97F
MOUNT PLEASANT LGT RAIN  55  55 100 CALM      29.96F
JOHNS ISLAND   FAIR      57  55  94 CALM      29.97F
PINOPOLIS        N/A     55  52  88 CALM      29.90S
MONCKS CORNER  FAIR      54  48  82 CALM      29.97F
SUMMERVILLE    FAIR      55  54  94 CALM      29.98F
BEAUFORT MCAS  CLOUDY    59  56  89 CALM      29.96F
BEAUFORT ARPT  FAIR      55  55 100 CALM      29.96F
HILTON HEAD IS CLOUDY    57  55  94 CALM      29.97F
WALTERBORO     CLOUDY    54  52  94 SE3       29.98F
ALLENDALE      FAIR      59  57  94 CALM      29.96S

...SOUTHERN MIDLANDS AND PEE DEE...

CITY           SKY/WX    TMP DP  RH WIND       PRES   REMARKS
GEORGETOWN     FAIR      48  48 100 CALM      29.99F
KINGSTREE      FAIR      52  46  82 E3        29.98F
ORANGEBURG     CLOUDY    58  52  80 SE3       29.97F
BARNWELL       FAIR      61  59  94 SE5       29.96F
AIKEN          FAIR      55  52  88 SE7       29.98F
MANNING        FAIR      52  43  71 CALM      29.98S
COLUMBIA       CLOUDY    56  46  69 E5        29.96S
SUMTER         MOCLDY    54  47  78 CALM      29.94F
FLORENCE       CLOUDY    52  46  80 CALM      29.99S
MYRTLE BEACH   CLOUDY    55  52  88 E6        30.00F
N MYRTLE BEACH CLOUDY    53  51  93 NE3       29.99F

$$

GAZ063-065-086>088-099>101-113>116-118-119-134>141-150-200600-
...SOUTHEAST GEORGIA...

CITY           SKY/WX    TMP DP  RH WIND       PRES   REMARKS
SAVANNAH ARPT  FOG       58  57  97 SE3       29.97F VSB 1
HUNTER AAF     CLOUDY    58  58 100 E3        29.94F FOG
FORT STEWART   CLOUDY    57  54  91 CALM      29.95S
STATESBORO     CLOUDY    60  57  92 CALM      29.96S
SYLVANIA       CLOUDY   N/A N/A N/A CALM      29.97S
CLAXTON        MOCLDY   N/A N/A N/A CALM      29.96F

...CSRA...CENTRAL AND FAR SOUTHEAST GEORGIA...

CITY           SKY/WX    TMP DP  RH WIND       PRES   REMARKS
THOMSON        CLOUDY    65  57  75 SE5       29.96F
AUGUSTA-BUSH   CLOUDY    62  53  72 SE6       29.94F
AUGUSTA-DANIEL CLOUDY    62  51  67 SE7       29.94F
SWAINSBORO     MOCLDY    63  59  88 SE7       29.95F
VIDALIA        CLOUDY    64  63  94 S6        29.96S
EASTMAN        FAIR      67  55  66 S3        29.96F
HAZLEHURST     FAIR      65  64  96 CALM      29.94F
ALMA           CLOUDY    63  62  97 SE6       29.95S
WAYCROSS       CLOUDY    67  67 100 S3        29.96F
JESUP          CLOUDY    61  57  88 CALM      29.97S
BAXLEY         FAIR      66  66 100 S3        29.96S
BRUNSWICK      FOG       57  57 100 CALM      29.98R VSB 1
SAINT SIMONS   CLOUDY    64  61  90 SW8       29.97R

$$

SCZ027-028-034-036>038-045-046-048>050-GAZ119-141-200600-
...LAKE AND SUPPLEMENTAL COASTAL OBSERVATIONS...

STATION/POSITION TIME  TEMP    WIND        PRES    WAVE   SWELL
                       AIR SEA DIR/SP/G            HT/PER HT/PER/DIR
                 (UTC) (F)     (DEG/KT/KT) (MB)    (FT/S) (FT/S/D)
WINYAH BAY       0345   55      50/  3     1015.0
LAKE MURRAY      0420   59     110/  4/  7 1013.9
ACE BASIN NERRS  0345   57        CALM     1015.0
FORT PULASKI     0448   58 58  110/  3/  4 1014.9F
SAPELO ISLAND    0400   59     120/  1     1015.0

$$

ANZ835-935-AMZ111-154-330-350-352-354-370-450-454-472-200600-
...C-MAN AND BUOY OBSERVATIONS...

STATION/POSITION TIME  TEMP    WIND        PRES    WAVE   SWELL
                       AIR SEA DIR/SP/G            HT/PER HT/PER/DIR
                 (UTC) (F)     (DEG/KT/KT) (MB)    (FT/S) (FT/S/D)
BUOY 41004       0350   69 71   80/ 12/ 14 1014.2    3/10   2/ 70/10
BUOY 41008       0350   61 60  100/  4/  4 1014.7    1/10   2/ 60/10
FOLLY BEACH CMAN 0400   57      50/  6/  7 1015.6F
CAPERS NEARSHORE 0408   57 55   60/  6/  8 1014.8F
FRIPP NEARSHORE  0408   58 57   60/  4/  6 1014.7S


STATION/POSITION TIME  TEMP    WIND        PRES    WAVE   SWELL
                       AIR SEA DIR/SP/G            HT/PER HT/PER/DIR
                 (UTC) (F)     (DEG/KT/KT) (MB)    (FT/S) (FT/S/D)
5E ST. MARYS GA  0430      64                N/A     1/10
FRYING PAN BUOY  0450   66 71  100/  8/ 12 1014.9F   3/10   2/ 90/10
BUOY 41025       0450   56 76   30/  8/ 10 1016.1F   4/ 9   3/ 40/ 9
CAPE LOOKOUT NC  0400   54      20/  2/  3 1016.0F
BUOY 41002       0450   67 71   40/  4/  6 1015.5F   5/10   5/ 50/10
BUOY 41010       NOT AVBL
ST AUGUSTINE FL  0500   64 63  240/  6/  8 1016.0R


$$




USA.gov is the U.S. government's official web portal to all federal, state and local government web resources and services.